White Plains, CT

5:57 AM EDT on September 23, 2019 (GMT -0400)
Westchester County

Weather History for KHPN - July, 2019

Change the Weather History Date:

Monday, July 22, 2019

  Actual Average Record
Temperature  
Mean Temperature 78 °F -  
Max Temperature 87 °F 80 °F 98 °F (2011)
Min Temperature 71 °F 62 °F 54 °F (1974)
Cooling Degree Days 14    
Growing Degree Days 28 (Base 50)    
Moisture  
Dew Point 69 °F    
Average Humidity 78    
Maximum Humidity 100    
Minimum Humidity 53    
Precipitation  
Precipitation 1.02 in - - ()
Sea Level Pressure  
Sea Level Pressure 29.78 in    
Wind  
Wind Speed 6 mph (East)    
Max Wind Speed 16 mph    
Max Gust Speed -    
Visibility 7 miles    
Events Rain , Thunderstorm    
Averages and records for this station are not official NWS values.
T = Trace of Precipitation, MM = Missing Value Source: NWS Daily Summary

Daily Weather History Graph

Daily Weather History Graph

Search for Another Location

Airport or City:

Astronomy

Jul. 22, 2019 Rise Set
Actual Time 5:41 AM EDT 8:20 PM EDT
Civil Twilight 5:09 AM EDT 8:52 PM EDT
Nautical Twilight 4:29 AM EDT 9:32 PM EDT
Astronomical Twilight 3:43 AM EDT 10:17 PM EDT
Moon 11:37 PM EDT (7/22) 10:57 AM EDT (7/22)
Length of Visible Light 15h 43m
Length of Day
14h 39m
Waning Gibbous, 72% of the Moon is Illuminated
Jul 22
Waning Gibbous
Jul 24
Last Quarter
Jul 31
New
Aug 7
First Quarter
Aug 15
Full

Hourly Weather History & Observations

Time (EDT) Temp. Heat Index Dew Point Humidity Pressure Visibility Wind Dir Wind Speed Gust Speed Precip Events Conditions
12:56 AM 80.1 °F 83.6 °F 71.1 °F 74% 29.85 in 10.0 mi SSW 4.6 mph - N/A   Partly Cloudy
1:56 AM 79.0 °F - 71.1 °F 77% 29.86 in 10.0 mi Calm Calm - N/A   Mostly Cloudy
2:56 AM 79.0 °F - 71.1 °F 77% 29.82 in 10.0 mi North 8.1 mph - N/A   Clear
3:56 AM 75.9 °F - 71.1 °F 85% 29.82 in 10.0 mi Calm Calm - N/A   Clear
4:56 AM 73.9 °F - 71.1 °F 91% 29.83 in 10.0 mi Calm Calm - N/A   Scattered Clouds
5:56 AM 73.9 °F - 71.1 °F 91% 29.84 in 10.0 mi Calm Calm - N/A   Scattered Clouds
6:56 AM 75.9 °F - 68.0 °F 76% 29.84 in 10.0 mi East 5.8 mph - N/A   Partly Cloudy
7:56 AM 78.1 °F - 64.9 °F 64% 29.85 in 10.0 mi Calm Calm - N/A   Scattered Clouds
8:56 AM 77.0 °F - 66.9 °F 71% 29.85 in 10.0 mi ESE 4.6 mph - N/A   Mostly Cloudy
9:56 AM 79.0 °F - 63.0 °F 58% 29.84 in 10.0 mi East 5.8 mph - N/A   Scattered Clouds
10:56 AM 80.1 °F 81.2 °F 62.1 °F 54% 29.84 in 10.0 mi ESE 5.8 mph - N/A   Clear
11:56 AM 82.9 °F 84.6 °F 64.9 °F 54% 29.82 in 10.0 mi Variable 4.6 mph - N/A   Clear
12:56 PM 84.9 °F 87.6 °F 66.9 °F 55% 29.79 in 10.0 mi SSE 11.5 mph - N/A   Partly Cloudy
1:56 PM 86.0 °F 88.8 °F 66.9 °F 53% 29.77 in 10.0 mi SE 8.1 mph - N/A   Partly Cloudy
2:56 PM 82.9 °F 85.4 °F 66.9 °F 58% 29.74 in 10.0 mi SE 10.4 mph - N/A   Scattered Clouds
3:14 PM 82.9 °F 85.0 °F 66.0 °F 56% 29.76 in 10.0 mi ESE 10.4 mph - 0.00 in Rain , Thunderstorm Light Rain
3:38 PM 84.9 °F 87.1 °F 66.0 °F 53% 29.74 in 10.0 mi ESE 11.5 mph - 0.00 in   Scattered Clouds
3:56 PM 82.0 °F 83.8 °F 64.9 °F 56% 29.72 in 9.0 mi ESE 10.4 mph - 0.00 in   Mostly Cloudy
4:05 PM 80.1 °F 82.3 °F 66.9 °F 64% 29.74 in 9.0 mi SE 11.5 mph - 0.00 in Rain , Thunderstorm Light Thunderstorms and Rain
4:37 PM 73.9 °F - 69.1 °F 85% 29.76 in 10.0 mi North 16.1 mph - 0.00 in Thunderstorm Overcast
4:50 PM 73.4 °F - 69.8 °F 88% 29.77 in 1.0 mi NNW 15.0 mph - 0.11 in Rain , Thunderstorm Heavy Thunderstorms and Rain
4:56 PM 72.0 °F - 70.0 °F 93% 29.73 in 1.0 mi North 15.0 mph - 0.21 in Rain , Thunderstorm Heavy Thunderstorms and Rain
5:10 PM 73.0 °F - 71.1 °F 93% 29.73 in 5.0 mi North 9.2 mph - 0.01 in Rain , Thunderstorm Light Rain
5:53 PM 73.4 °F - 69.8 °F 88% 29.73 in 1.5 mi NW 8.1 mph - 0.13 in Rain , Thunderstorm Thunderstorms and Rain
5:56 PM 72.0 °F - 70.0 °F 93% 29.71 in 1.5 mi NNW 12.7 mph - 0.17 in Rain , Thunderstorm Thunderstorms and Rain
6:56 PM 72.0 °F - 71.1 °F 97% 29.71 in 0.8 mi North 9.2 mph - 0.27 in Rain , Thunderstorm Light Thunderstorms and Rain
7:39 PM 72.0 °F - 70.0 °F 93% 29.79 in 1.5 mi South 5.8 mph - 0.11 in Rain , Thunderstorm Light Rain
7:56 PM 71.1 °F - 71.1 °F 100% 29.75 in 1.5 mi Calm Calm - 0.19 in Rain , Thunderstorm Light Rain
8:56 PM 72.0 °F - 70.0 °F 93% 29.75 in 1.5 mi Variable 3.5 mph - 0.12 in Rain Light Rain
9:56 PM 72.0 °F - 70.0 °F 93% 29.74 in 3.0 mi Calm Calm - 0.03 in Rain Light Rain
10:56 PM 72.0 °F - 71.1 °F 97% 29.75 in 3.0 mi SSE 3.5 mph - 0.01 in Rain Light Rain
11:16 PM 72.0 °F - 70.0 °F 93% 29.77 in 1.8 mi SE 6.9 mph - 0.00 in Rain Light Rain
11:56 PM 71.1 °F - 71.1 °F 100% 29.76 in 1.5 mi Calm Calm - 0.02 in Rain Light Rain